Temperature
13 14 14 15 15 16 17 17 17 18 18 18 18 18 18 19 19 19 19 18 18 18 18 18 18 18 18 18 18 18 17 17 17 17 17 17 17 17 17 17 17 17 17
13 13 14 14 14 15 16 16 17 17 17 17 18 18 18 18 19 19 18 18 18 18 18 18 18 18 18 18 17 17 17 17 17 17 17 17 17 17 17 17 17 17 17
11 12 13 13 14 14 15 15 16 16 16 17 17 17 18 18 18 18 18 18 18 18 18 18 18 17 17 17 17 17 17 17 17 17 17 17 17 17 17 17 17 17 17
11 11 12 12 13 13 14 14 15 15 15 16 16 17 17 17 18 18 18 18 18 18 18 18 17 17 17 17 17 17 17 16 17 17 17 17 17 17 17 17 17 17 17
11 11 11 12 12 13 13 13 14 14 15 15 15 16 16 16 16 17 17 17 17 17 17 17 17 17 17 17 17 16 16 16 16 16 16 16 16 16 17 17 17 17 17
11 11 11 12 12 12 13 13 13 14 14 14 15 15 15 15 16 16 16 16 16 16 16 17 16 16 16 16 16 16 16 16 16 16 16 16 16 16 16 16 16 16 16
11 11 11 11 12 12 13 13 13 13 13 14 14 14 14 15 15 15 15 16 16 16 16 16 16 16 16 16 16 16 15 15 15 15 15 15 15 15 15 15 15 15 16
11 11 11 11 11 12 12 12 13 13 13 13 13 14 14 14 14 15 15 15 15 15 15 15 15 15 15 15 15 15 15 15 15 15 15 15 15 15 15 15 15 15 15
11 11 11 11 11 12 12 12 12 13 13 13 13 13 14 14 14 14 15 15 15 15 15 15 15 14 14 14 14 14 14 14 14 14 14 14 14 14 14 14 14 14 14
11 11 11 11 11 11 12 12 12 12 12 13 13 13 13 13 14 14 14 14 14 14 14 14 14 14 14 14 14 14 14 14 14 14 14 14 14 14 14 14 14 14 14
11 11 11 11 11 11 12 12 12 12 12 13 13 13 13 13 13 13 14 14 14 14 14 14 14 14 14 14 14 14 14 14 14 14 14 14 14 14 14 14 14 14 14
12 12 11 11 11 11 12 12 12 12 12 12 12 13 13 13 13 13 13 14 14 14 14 14 14 14 14 14 14 14 14 14 14 14 14 14 14 14 14 14 14 14 14
12 12 12 12 11 11 11 11 11 12 12 12 12 13 13 13 13 13 13 13 13 13 13 14 14 13 13 13 13 13 13 14 14 14 14 14 14 14 14 14 14 14 14
13 12 12 12 12 11 11 11 11 11 12 12 12 12 12 12 13 13 13 13 13 13 13 13 13 13 13 13 13 13 13 14 14 14 14 14 14 14 14 14 14 14 14
13 13 12 12 12 12 11 11 11 11 11 12 12 12 12 12 12 12 12 13 13 13 13 13 13 13 13 13 13 13 13 13 13 14 14 14 14 14 14 14 14 14 14
13 13 13 12 12 12 11 11 11 11 11 11 11 11 11 12 12 12 12 12 12 12 12 13 13 13 13 13 13 13 13 13 13 13 13 14 14 14 14 14 14 14 14
13 13 13 13 12 12 11 11 11 11 11 11 11 11 11 11 11 11 11 11 11 12 12 12 12 12 12 12 12 12 13 13 13 13 13 13 13 14 14 14 14 14 14
13 13 13 13 12 12 12 11 11 11 11 11 11 11 11 11 11 11 11 11 11 11 11 11 11 11 12 12 12 12 12 12 12 12 13 13 13 13 13 13 13 13 13
14 14 13 13 13 12 12 12 11 11 11 11 11 11 10 10 10 10 10 10 10 11 11 11 11 11 11 11 11 11 11 12 12 12 12 12 13 13 13 13 13 13 13
14 14 14 13 13 13 12 12 12 11 11 11 11 10 10 10 10 10 10 10 10 10 10 10 10 10 10 11 11 11 11 11 11 11 12 12 12 12 13 13 13 13 13
14 14 14 14 13 13 13 12 12 12 11 11 11 11 10 10 10 10 10 10 10 10 10 10 10 10 10 10 10 10 11 11 11 11 11 12 12 12 12 12 12 12 12
14 14 14 14 14 13 13 12 12 12 11 11 11 11 10 10 10 10 10 10 10 10 10 9 9 9 10 10 10 10 10 10 11 11 11 11 11 12 12 12 12 12 12
15 15 14 14 14 13 13 13 12 12 11 11 11 11 10 10 10 10 10 10 10 9 9 9 9 9 9 9 10 10 10 10 10 10 11 11 11 11 11 12 12 12 11
15 15 15 14 14 14 13 13 12 12 12 11 11 11 10 10 10 10 10 10 10 9 9 9 9 9 9 9 9 9 10 10 10 10 10 10 11 11 11 11 11 11 11
15 15 15 15 14 14 13 13 13 12 12 11 11 11 10 10 10 10 10 9 9 9 9 9 9 9 9 9 9 9 9 9 9 10 10 10 10 10 10 10 10 10 10
15 15 15 15 14 14 14 13 13 12 12 11 11 11 10 10 10 10 10 9 9 9 9 8 8 8 9 9 9 9 9 9 9 10 10 10 10 10 10 10 10 10 10
Wind_Speed
12 12 12 12 11 11 10 10 9 9 7 4 3 3 5 6 6 6 7 9 9 9 8 6 5 4 5 6 6 4 4 2 3 3 1 2 1 3 4 3 4 5 8
15 15 14 12 11 10 10 10 9 9 7 5 4 4 4 4 6 6 7 9 9 8 7 7 6 5 4 4 4 4 3 2 3 4 3 1 3 3 2 3 4 5 5
15 15 14 13 12 11 11 10 10 10 9 7 5 4 3 2 3 5 6 7 9 9 8 7 7 7 6 5 5 5 5 4 3 3 4 4 5 3 2 2 3 4 4
14 14 14 14 13 12 11 10 9 9 9 8 5 5 3 4 4 3 4 5 6 8 8 7 7 7 6 6 6 5 3 4 3 2 1 2 4 3 2 2 2 3 4
14 14 14 13 12 11 10 9 9 9 9 8 6 5 4 3 3 2 3 4 4 5 7 7 7 7 7 7 7 6 6 4 4 4 3 2 1 1 3 2 2 2 2
14 14 13 12 10 9 9 8 8 8 8 8 7 6 5 3 2 1 2 3 2 3 4 4 5 6 6 7 7 7 7 6 5 4 4 4 3 4 3 4 3 2 3
13 14 15 14 13 12 10 9 8 8 8 8 7 7 6 5 4 2 1 2 2 2 3 3 4 4 5 6 6 7 7 7 6 6 5 4 4 3 3 3 2 2 2
13 14 14 13 12 12 11 10 9 8 8 7 7 7 7 5 4 4 3 2 2 2 2 3 3 3 3 5 5 5 5 5 6 6 5 4 4 4 4 4 4 2 2
14 14 14 13 12 12 10 10 9 8 8 8 7 7 8 7 6 6 5 4 3 3 3 3 3 2 2 3 4 4 4 4 4 5 5 4 4 4 4 4 4 4 3
14 14 13 13 12 11 10 9 9 8 7 8 8 7 8 8 7 7 7 6 5 4 3 3 3 2 2 3 3 3 3 3 3 3 4 4 3 4 4 4 4 4 4
12 12 12 12 11 10 10 10 10 9 9 9 8 8 8 8 7 7 7 6 5 5 5 3 3 3 3 3 3 3 3 3 2 2 3 3 3 4 4 4 4 4 4
10 9 10 10 10 11 11 11 11 10 9 9 8 8 8 8 8 8 7 7 6 6 6 5 5 4 4 4 4 3 3 3 2 1 2 2 2 3 3 4 4 4 4
9 9 9 9 9 10 10 11 11 10 10 9 9 10 10 9 9 9 8 8 7 7 6 6 6 5 5 4 4 3 3 2 2 1 1 1 2 3 3 3 3 3 3
7 8 9 9 9 8 9 9 10 10 10 10 10 10 10 9 9 9 9 9 8 8 8 7 6 6 5 5 4 3 3 3 2 1 1 2 3 3 4 3 3 3 3
8 8 8 8 8 8 9 8 9 9 9 9 10 9 9 9 9 10 10 10 10 10 8 8 8 7 5 5 5 4 3 3 3 3 1 0 1 3 3 3 4 4 3
8 8 7 7 7 7 7 7 8 8 8 9 9 9 9 9 10 9 9 10 10 9 10 10 9 9 8 9 9 5 4 4 4 4 4 3 2 3 4 5 6 6 4
7 7 6 5 5 5 5 6 6 6 7 8 8 8 8 8 8 9 9 10 9 9 10 10 10 9 10 13 11 8 4 4 4 4 3 3 3 4 4 6 7 5 5
6 6 5 5 4 4 4 5 6 6 7 7 8 8 8 7 7 8 9 8 7 8 8 9 10 9 11 15 12 10 6 5 5 5 4 3 4 3 4 5 6 5 5
4 4 4 3 3 3 3 4 6 6 7 7 7 7 7 7 8 8 8 7 7 8 8 8 9 10 11 15 13 10 5 5 6 5 5 4 4 5 5 6 6 6 5
3 4 4 2 2 3 3 4 5 5 6 5 5 6 6 7 7 7 6 6 6 7 7 8 8 9 9 14 14 10 5 5 5 5 6 7 6 6 6 5 5 6 4
4 4 4 3 3 2 2 3 3 4 3 4 5 6 6 6 6 6 6 6 6 7 7 8 7 8 10 12 14 12 5 4 5 5 5 5 8 8 7 6 4 5 5
4 4 4 4 3 2 2 2 2 1 3 5 6 7 7 6 6 6 7 7 7 7 8 8 8 7 8 10 12 13 11 7 5 4 4 5 9 10 10 7 7 10 8
4 3 3 3 4 3 1 1 0 2 4 5 6 6 6 6 6 6 6 6 7 6 7 7 7 7 7 9 13 13 12 11 6 5 8 10 11 10 9 12 11 8 6
3 3 3 3 4 3 2 0 2 4 5 5 4 4 5 5 5 5 5 5 6 6 6 6 6 6 7 8 7 7 7 8 7 6 9 12 14 11 10 10 8 7 6
3 2 2 2 3 3 3 2 3 5 5 4 3 3 3 3 3 4 4 4 4 3 3 3 4 5 6 8 10 7 6 5 5 5 6 7 7 8 8 7 7 7 6
2 2 2 1 2 2 3 2 2 5 5 4 3 2 1 1 1 2 2 3 3 6 7 6 5 4 6 8 11 13 13 12 10 8 7 7 7 7 7 6 6 6 6
Wind_Direction
346 348 348 346 342 342 341 339 344 341 338 332 309 265 238 235 225 216 212 210 204 200 194 200 193 192 204 209 191 171 171 168 138 115 70 330 288 238 237 227 227 231 233
346 347 345 342 339 334 333 332 336 334 329 315 293 266 255 242 229 218 206 207 199 195 196 190 183 185 195 196 184 164 158 167 163 150 139 247 314 284 238 229 228 231 222
341 339 338 335 334 333 332 331 330 331 326 318 306 297 273 254 232 217 208 202 194 189 183 183 182 183 186 193 188 179 171 178 193 184 156 164 215 257 290 254 241 230 219
338 337 335 331 329 326 325 325 327 329 328 328 324 313 288 271 259 242 215 195 191 187 179 178 180 182 182 187 193 185 186 173 182 200 197 161 157 166 241 293 273 248 232
335 335 331 326 322 323 325 325 326 331 332 334 334 327 313 295 282 253 195 188 185 182 179 174 176 184 186 190 189 182 190 190 185 181 170 153 123 146 163 233 283 303 261
336 333 332 330 327 330 333 331 332 334 339 345 348 349 343 335 322 274 199 178 164 162 174 172 181 188 189 193 193 186 191 197 196 194 182 174 173 186 178 204 229 260 287
338 338 341 342 340 341 342 342 344 342 346 353 358 359 360 1 1 340 181 150 146 155 173 172 187 194 193 190 184 184 190 193 194 197 198 194 190 162 164 176 200 233 282
342 341 341 341 341 343 346 348 352 353 355 0 3 7 10 14 18 23 44 75 98 124 133 141 152 158 171 182 179 181 185 188 195 198 192 190 192 180 175 171 168 198 252
343 344 345 346 343 345 349 353 358 2 2 5 9 17 19 23 27 32 40 49 56 76 95 112 128 137 141 152 160 170 175 179 189 194 196 197 193 189 195 181 177 176 200
346 348 349 349 347 350 355 1 4 6 8 11 16 23 21 23 26 34 38 39 42 52 66 77 93 97 117 151 151 147 153 162 177 187 198 194 186 184 190 187 186 180 177
344 347 349 351 352 0 6 10 11 14 16 16 18 21 22 23 27 31 30 34 40 44 54 63 81 81 77 91 111 114 117 123 142 183 190 197 183 182 184 176 175 181 176
337 340 343 349 358 7 9 12 15 18 16 16 21 24 22 24 28 29 27 30 37 39 43 50 62 66 69 73 90 106 110 120 137 162 180 196 189 181 173 173 180 183 180
337 342 347 351 358 5 9 14 17 17 16 22 27 29 27 28 30 29 29 33 38 39 42 50 55 56 56 60 67 82 89 102 120 143 188 202 182 185 175 173 175 174 169
342 348 348 351 359 6 9 12 15 15 19 25 30 30 26 26 30 33 35 35 38 41 39 41 41 44 48 49 49 55 56 45 37 37 209 200 192 191 181 172 166 151 139
349 351 350 350 357 4 6 9 12 12 17 24 28 25 23 28 32 35 36 37 38 40 37 39 34 30 37 36 36 37 45 36 28 16 8 69 142 167 165 157 154 144 134
343 347 351 353 356 360 1 7 9 7 17 26 24 20 26 31 31 31 34 38 37 37 39 37 32 31 30 33 39 44 43 39 36 25 13 16 57 106 116 124 141 146 145
333 341 344 345 343 351 359 4 1 9 23 26 23 21 26 32 27 32 36 35 33 36 39 34 30 26 22 34 39 44 51 50 45 35 24 26 48 73 92 97 96 94 105
332 335 335 338 341 353 4 7 15 21 26 26 23 19 25 31 30 35 34 28 28 33 34 31 27 26 24 30 35 44 47 49 41 36 33 37 37 54 93 100 90 77 68
308 308 312 312 332 357 6 22 24 23 27 24 22 19 25 33 34 34 28 22 30 34 32 29 27 25 17 21 29 40 40 44 37 30 35 42 41 49 96 106 104 92 74
327 328 334 344 356 358 29 37 25 28 23 19 22 26 34 41 39 34 29 25 31 31 29 30 25 22 17 19 27 37 39 39 31 27 28 32 41 54 92 108 116 113 99
343 353 3 358 333 349 51 42 26 25 21 39 41 37 38 46 42 39 33 29 31 31 28 25 20 19 16 18 26 34 41 40 38 35 27 23 41 58 77 92 102 118 118
354 1 3 348 342 9 60 43 18 39 75 68 58 47 39 42 42 44 38 32 33 34 27 21 17 13 10 15 24 36 44 50 54 42 30 36 53 60 63 72 89 102 100
351 351 353 351 357 9 57 50 310 128 106 84 69 59 53 45 40 45 41 36 33 35 28 25 18 7 7 10 22 32 40 42 52 50 56 60 60 60 59 63 72 78 83
343 345 4 13 358 354 18 18 156 140 122 105 88 72 64 52 41 41 40 42 35 32 29 23 13 6 8 10 9 16 27 35 45 48 54 59 59 59 56 55 55 55 66
325 340 353 345 335 345 6 29 133 141 130 123 116 97 80 71 51 44 37 37 30 29 29 11 2 8 10 10 27 37 35 38 43 51 52 49 48 52 49 49 50 49 52
315 339 348 345 339 354 3 16 137 150 148 149 156 156 147 121 68 31 11 9 20 32 41 37 32 17 29 36 43 46 49 50 56 65 61 56 53 54 50 52 50 46 44
Height
1547 1543 1539 1536 1533 1530 1527 1524 1521 1519 1518 1517 1517 1517 1518 1519 1520 1521 1523 1525 1527 1529 1531 1533 1536 1538 1540 1542 1545 1547 1549 1550 1552 1554 1555 1556 1556 1557 1558 1559 1560 1560 1561
1545 1541 1538 1535 1531 1528 1525 1522 1519 1517 1515 1513 1512 1512 1512 1513 1514 1516 1517 1519 1522 1523 1525 1528 1530 1533 1535 1538 1541 1543 1545 1547 1549 1550 1552 1553 1554 1554 1555 1556 1557 1558 1559
1545 1540 1536 1533 1529 1526 1523 1520 1517 1514 1512 1510 1508 1507 1507 1508 1509 1510 1511 1513 1516 1518 1520 1522 1525 1527 1530 1533 1536 1538 1541 1543 1545 1547 1548 1549 1549 1550 1552 1552 1553 1555 1556
1545 1540 1535 1531 1527 1524 1521 1517 1515 1512 1509 1507 1504 1503 1503 1503 1503 1505 1506 1508 1510 1512 1514 1517 1519 1521 1524 1527 1530 1533 1536 1539 1540 1542 1544 1545 1546 1547 1548 1549 1550 1551 1552
1545 1539 1534 1530 1526 1522 1519 1516 1513 1510 1507 1504 1502 1500 1499 1499 1499 1500 1501 1502 1504 1507 1510 1512 1514 1516 1519 1521 1524 1527 1530 1533 1536 1537 1539 1541 1542 1543 1545 1545 1546 1547 1548
1544 1539 1534 1529 1525 1521 1518 1515 1511 1508 1505 1503 1500 1499 1497 1497 1496 1497 1498 1499 1501 1503 1505 1508 1510 1512 1514 1516 1519 1522 1524 1527 1530 1532 1534 1536 1537 1538 1540 1541 1542 1543 1545
1544 1538 1532 1528 1524 1520 1516 1513 1510 1508 1504 1502 1500 1498 1497 1496 1495 1495 1496 1497 1499 1500 1502 1504 1506 1507 1509 1511 1514 1517 1519 1522 1524 1527 1529 1531 1532 1534 1536 1537 1538 1539 1540
1544 1539 1533 1528 1524 1520 1516 1513 1510 1507 1505 1502 1500 1498 1497 1496 1495 1495 1495 1496 1498 1499 1500 1502 1503 1504 1505 1507 1509 1511 1514 1517 1519 1522 1524 1526 1528 1529 1531 1533 1534 1535 1536
1545 1540 1534 1530 1525 1521 1517 1514 1511 1508 1506 1504 1502 1500 1499 1498 1496 1496 1496 1497 1497 1498 1499 1500 1502 1502 1503 1505 1506 1508 1510 1512 1515 1518 1520 1522 1524 1525 1527 1529 1531 1533 1532
1547 1541 1536 1531 1527 1522 1519 1516 1513 1510 1508 1506 1504 1503 1501 1500 1499 1498 1498 1498 1498 1499 1499 1500 1501 1501 1502 1503 1505 1506 1507 1509 1512 1515 1517 1519 1521 1522 1524 1526 1527 1529 1530
1550 1545 1540 1535 1530 1526 1522 1519 1516 1513 1511 1509 1507 1506 1504 1503 1502 1501 1501 1500 1500 1500 1500 1500 1500 1500 1501 1502 1503 1504 1506 1508 1510 1512 1514 1516 1518 1520 1521 1523 1524 1526 1527
1553 1548 1543 1538 1534 1529 1526 1522 1519 1517 1514 1513 1511 1509 1507 1506 1505 1504 1503 1502 1502 1502 1501 1501 1501 1501 1501 1502 1502 1503 1505 1507 1509 1511 1513 1515 1517 1518 1519 1521 1522 1523 1524
1555 1550 1546 1542 1538 1534 1530 1527 1523 1521 1519 1517 1514 1512 1511 1509 1508 1506 1506 1505 1505 1504 1504 1503 1503 1503 1503 1503 1503 1504 1505 1506 1508 1510 1512 1514 1516 1517 1518 1520 1521 1521 1522
1557 1553 1549 1545 1542 1538 1535 1531 1528 1526 1523 1521 1518 1516 1514 1513 1511 1509 1508 1507 1507 1506 1506 1505 1505 1504 1504 1505 1505 1505 1506 1507 1509 1510 1512 1513 1515 1516 1517 1519 1519 1520 1521
1559 1555 1552 1549 1546 1543 1539 1536 1533 1530 1528 1525 1522 1520 1518 1517 1515 1513 1511 1510 1509 1508 1508 1507 1506 1506 1506 1506 1506 1507 1507 1508 1509 1510 1512 1513 1514 1515 1517 1518 1518 1519 1520
1561 1558 1555 1552 1549 1546 1543 1540 1538 1535 1533 1530 1527 1525 1523 1520 1518 1517 1515 1513 1512 1510 1509 1509 1508 1508 1507 1507 1507 1507 1508 1508 1509 1510 1511 1512 1514 1515 1516 1517 1518 1519 1520
1562 1560 1557 1555 1552 1550 1547 1544 1542 1539 1536 1534 1531 1529 1527 1524 1522 1521 1519 1517 1515 1513 1512 1511 1510 1509 1508 1508 1507 1507 1508 1508 1509 1510 1511 1512 1513 1514 1516 1517 1518 1519 1520
1564 1561 1559 1557 1554 1552 1550 1547 1545 1542 1540 1537 1534 1532 1530 1528 1526 1524 1522 1520 1518 1516 1515 1513 1512 1511 1510 1509 1508 1508 1508 1508 1509 1509 1510 1511 1513 1514 1515 1516 1518 1519 1520
1564 1562 1560 1558 1556 1554 1552 1550 1548 1545 1542 1540 1537 1535 1533 1532 1530 1527 1525 1523 1522 1520 1518 1516 1514 1513 1511 1510 1509 1509 1508 1508 1509 1509 1510 1511 1512 1513 1515 1516 1517 1519 1520
1565 1563 1561 1559 1558 1556 1554 1552 1550 1548 1545 1543 1540 1539 1537 1535 1533 1531 1529 1527 1525 1523 1521 1519 1517 1515 1513 1512 1511 1510 1509 1509 1509 1510 1510 1511 1512 1513 1514 1516 1517 1518 1520
1565 1563 1562 1560 1559 1557 1556 1554 1552 1550 1548 1546 1543 1541 1540 1538 1536 1534 1532 1530 1528 1525 1523 1521 1519 1518 1516 1514 1513 1512 1511 1510 1510 1510 1511 1512 1512 1514 1515 1516 1517 1519 1520
1565 1564 1562 1561 1560 1558 1557 1555 1554 1552 1550 1548 1546 1544 1543 1541 1539 1537 1535 1533 1531 1528 1526 1524 1522 1520 1518 1517 1515 1514 1513 1512 1512 1512 1512 1512 1513 1514 1515 1517 1518 1519 1520
1565 1564 1563 1562 1560 1559 1558 1556 1555 1553 1552 1551 1549 1547 1546 1544 1542 1541 1539 1536 1534 1531 1529 1527 1525 1523 1521 1519 1518 1517 1515 1514 1514 1514 1514 1514 1515 1516 1516 1518 1519 1520 1521
1565 1565 1563 1562 1561 1560 1559 1557 1556 1555 1554 1553 1551 1550 1548 1547 1546 1544 1542 1539 1536 1534 1532 1530 1528 1526 1524 1522 1521 1520 1518 1518 1517 1516 1516 1517 1517 1518 1518 1519 1520 1522 1523
1565 1565 1564 1563 1562 1560 1559 1558 1557 1556 1555 1554 1553 1552 1551 1550 1548 1546 1544 1542 1540 1537 1535 1533 1531 1529 1527 1526 1524 1523 1522 1521 1520 1520 1520 1520 1520 1520 1521 1522 1522 1523 1524
1565 1564 1564 1563 1562 1561 1560 1559 1558 1557 1556 1555 1554 1553 1553 1551 1550 1549 1547 1545 1543 1540 1538 1536 1534 1532 1530 1528 1527 1526 1525 1524 1523 1523 1523 1522 1523 1523 1523 1524 1525 1525 1526